DW6157 Weather Reports


Display with metric or nautical units.
time (UTC)temp
F
wind
direction
speed
MPH
gust
MPH
rain 1hr
in
rain 24hr
in
rain mn
in
humidity
%
barometer
mb
20260903093022 64 205 0.0 8.0 0.00 0.00 0.00 61 1006.4
20260903091512 62 210 0.0 0.0 0.00 0.00 0.00 65 1006.5
20260903090009 59 234 0.0 0.0 0.00 0.00 0.00 67 1006.6
20260903084518 59 237 0.0 0.0 0.00 0.00 0.00 65 1006.7
20260903083007 59 278 0.0 0.0 0.00 0.00 0.00 65 1006.7
20260903081504 59 335 0.0 0.0 0.00 0.00 0.00 64 1006.8
20260903080001 58 264 0.0 0.0 0.00 0.00 0.00 68 1006.8
20260903074559 57 332 0.0 5.0 0.00 0.00 0.00 66 1006.9
20260903073056 55 260 0.0 0.0 0.00 0.00 0.00 72 1007.0
20260903071556 55 265 0.0 0.0 0.00 0.00 0.00 69 1007.2
20260903070053 56 267 0.0 0.0 0.00 0.00 0.00 67 1007.3
20260903064553 56 275 0.0 6.0 0.00 0.00 0.00 70 1007.5
20260903063050 54 268 0.0 0.0 0.00 0.00 0.00 72 1007.4
20260903061542 54 252 0.0 0.0 0.00 0.00 0.00 73 1007.6
20260903060142 53 237 0.0 2.0 0.00 0.00 0.00 79 1007.6
20260903054539 51 235 0.0 0.0 0.00 0.00 0.00 82 1007.7
20260903053038 48 236 0.0 0.0 0.00 0.00 0.00 83 1007.6
20260903051536 46 235 0.0 0.0 0.00 0.00 0.00 86 1007.7
20260903050043 44 235 0.0 1.0 0.00 0.00 0.00 86 1007.8
20260903044537 43 235 0.0 0.0 0.00 0.00 0.00 85 1007.9
20260903043032 43 235 0.0 0.0 0.00 0.00 0.00 85 1007.9
20260903041539 44 235 0.0 2.0 0.00 0.00 0.00 85 1007.8
20260903040030 44 235 0.0 1.0 0.00 0.00 0.00 83 1007.8
20260903034534 45 235 0.0 0.0 0.00 0.00 0.00 81 1007.9
20260903033024 46 235 0.0 1.0 0.00 0.00 0.00 80 1007.9
20260903031526 46 235 0.0 0.0 0.00 0.00 0.00 79 1007.8
20260903030023 47 235 0.0 1.0 0.00 0.00 0.00 77 1007.9
20260903024523 47 236 0.0 2.0 0.00 0.00 0.00 76 1007.9
20260903023027 47 236 0.0 2.0 0.00 0.00 0.00 76 1007.8
20260903021521 46 233 0.0 3.0 0.00 0.00 0.00 78 1007.8
20260903020050 46 233 0.0 3.0 0.00 0.00 0.00 78 1007.8
20260903014515 47 232 0.0 1.0 0.00 0.00 0.00 78 1008.0
20260903013013 47 232 0.0 0.0 0.00 0.00 0.00 77 1008.1
20260903011510 48 232 0.0 0.0 0.00 0.00 0.00 76 1008.2
20260903010010 48 232 0.0 2.0 0.00 0.00 0.00 75 1008.2
20260903004508 48 230 0.0 2.0 0.00 0.00 0.00 75 1008.1
20260903003005 49 229 0.0 0.0 0.00 0.00 0.00 74 1008.3
20260903001504 49 229 0.0 3.0 0.00 0.00 0.00 73 1008.2
20260903000110 50 239 0.0 3.0 0.00 0.00 0.00 71 1008.1
20260902234559 50 239 0.0 5.0 0.00 0.00 0.00 71 1008.1
20260902233102 50 239 0.0 0.0 0.00 0.00 0.00 70 1008.1
20260902231556 51 239 0.0 3.0 0.00 0.00 0.00 68 1008.2
20260902230053 51 239 1.0 2.0 0.00 0.00 0.00 67 1008.3
20260902224550 52 239 0.0 0.0 0.00 0.00 0.00 66 1008.3
20260902223046 53 239 0.0 0.0 0.00 0.00 0.00 63 1008.3
20260902221606 53 237 0.0 4.0 0.00 0.00 0.00 62 1008.2
20260902220040 54 210 2.0 8.0 0.00 0.00 0.00 62 1008.0
20260902214539 54 227 2.0 7.0 0.00 0.00 0.00 61 1008.0
20260902213038 55 272 1.0 6.0 0.00 0.00 0.00 61 1008.1
20260902211537 55 310 1.0 6.0 0.00 0.00 0.00 60 1008.0
20260902210037 56 289 2.0 6.0 0.00 0.00 0.00 59 1008.0
20260902204550 56 251 4.0 12.0 0.00 0.00 0.00 59 1007.8
20260902203035 56 256 2.0 8.0 0.00 0.00 0.00 60 1007.9
20260902201540 57 291 1.0 5.0 0.00 0.00 0.00 59 1007.9
20260902200037 58 293 1.0 7.0 0.00 0.00 0.00 58 1007.9
20260902194549 58 279 2.0 5.0 0.00 0.00 0.00 58 1007.9
20260902193032 59 291 3.0 7.0 0.00 0.00 0.00 56 1007.7
20260902191542 59 301 3.0 9.0 0.00 0.00 0.00 58 1007.6
20260902190032 60 337 2.0 9.0 0.00 0.00 0.00 59 1007.3
20260902184533 60 303 1.0 4.0 0.00 0.00 0.00 60 1007.2
20260902183032 61 243 0.0 0.0 0.00 0.00 0.00 59 1007.1
20260902181530 63 279 0.0 0.0 0.00 0.00 0.00 58 1007.0
20260902180029 63 260 0.0 3.0 0.00 0.00 0.00 55 1007.0
20260902174532 64 289 0.0 6.0 0.00 0.00 0.00 53 1007.0
20260902173035 65 297 0.0 4.0 0.00 0.00 0.00 52 1006.9
20260902171526 65 285 1.0 8.0 0.00 0.00 0.00 51 1006.9
20260902170027 67 234 2.0 6.0 0.00 0.00 0.00 51 1006.9
20260902164526 68 289 0.0 7.0 0.00 0.00 0.00 48 1006.8
20260902163025 69 274 3.0 9.0 0.00 0.00 0.00 46 1006.7
20260902161529 69 274 3.0 8.0 0.00 0.00 0.00 46 1006.7
20260902160023 68 221 2.0 10.0 0.00 0.00 0.00 55 1006.7
20260902154540 68 205 2.0 11.0 0.00 0.00 0.00 62 1006.7
20260902153020 67 200 6.0 15.0 0.00 0.00 0.00 64 1006.8
20260902151531 68 210 7.0 14.0 0.00 0.00 0.00 62 1007.0
20260902150020 68 218 4.0 14.0 0.00 0.00 0.00 64 1007.1
20260902144519 68 200 6.0 15.0 0.00 0.00 0.00 65 1007.1
20260902143018 67 186 9.0 16.0 0.00 0.00 0.00 68 1007.0
20260902141517 68 210 6.0 13.0 0.00 0.00 0.00 67 1007.2
20260902140016 67 216 8.0 17.0 0.00 0.00 0.00 67 1007.3
20260902134516 68 231 5.0 19.0 0.00 0.00 0.00 66 1007.5
20260902133016 68 200 7.0 17.0 0.00 0.00 0.00 65 1007.4
20260902131515 68 215 6.0 17.0 0.00 0.00 0.00 66 1007.3
20260902130028 68 210 5.0 15.0 0.00 0.00 0.00 63 1007.5
20260902124512 68 193 10.0 21.0 0.00 0.00 0.00 61 1007.3
20260902123025 69 224 8.0 15.0 0.00 0.00 0.00 62 1007.3
20260902121509 69 229 6.0 14.0 0.00 0.00 0.00 63 1007.4
20260902120007 68 205 6.0 14.0 0.00 0.00 0.00 64 1007.4
20260902114512 68 221 8.0 15.0 0.00 0.00 0.00 63 1007.5
20260902113005 68 234 6.0 17.0 0.00 0.00 0.00 64 1007.6
20260902111505 68 275 8.0 17.0 0.00 0.00 0.00 63 1007.8
20260902110003 68 205 7.0 13.0 0.00 0.00 0.00 64 1007.8
20260902104503 67 210 4.0 12.0 0.00 0.00 0.00 65 1007.8
20260902103106 66 215 2.0 12.0 0.00 0.00 0.00 67 1007.9
20260902101556 66 237 6.0 13.0 0.00 0.00 0.00 66 1008.1
20260902100055 66 216 5.0 12.0 0.00 0.00 0.00 67 1008.2
20260902094554 66 220 4.0 12.0 0.00 0.00 0.00 65 1008.3